Location: *
(43.7000°S, 168.7000°W)
Time: 14:37:43
(UTC+00:00)

Cosmos 2279 Rocket - Pass Details

Date: 07 July 2020
Orbit: 963 x 980 km, 82.9° (Epoch: 03 August)

Event Time Altitude Azimuth Distance (km) Brightness Sun altitude
Exits shadow 16:49:32 37° 256° (WSW) 1,501 4.4 -20.6°
Maximum altitude 16:50:06 37° 268° (W) 1,483 4.4 -20.5°
Drops below altitude 10° 16:55:46 10° 333° (NNW) 2,733 6.2 -19.5°
Sets 16:58:26 0° 340° (NNW) 3,670 7.0 -19.1°
